Location: Cassano d�Adda
(45.5333°N, 9.5167°E)
Time: 21:15:47
(UTC+00:00)

AQUARIUS - Pass Details

Date: 08 December 2019
Orbit: 650 x 653 km, 98.0° (Epoch: 17 January)

Event Time Altitude Azimuth Distance (km) Brightness Sun altitude
Rises 16:35:05 0° 159° (SSE) 2,962 7.6 -9.6°
Reaches altitude 10° 16:37:18 10° 157° (SSE) 2,056 6.7 -10.0°
Maximum altitude 16:41:45 71° 74° (ENE) 693 4.1 -10.7°
Drops below altitude 10° 16:46:15 10° 351° (N) 2,071 6.6 -11.4°
Sets 16:48:29 0° 349° (N) 2,987 7.5 -11.8°
